FW2489 Weather Reports


time (UTC)temp
C
wind
direction
speed
KPH
gust
KPH
rain 1hr
cm
rain 24hr
cm
rain mn
cm
humidity
%
barometer
mb
20260506124701 8 69 0.0 0.0 0.00 0.00 0.00 95 1019.3
20260506123701 8 37 0.0 0.0 0.00 0.00 0.00 95 1019.3
20260506121703 8 32 3.2 3.2 0.00 0.00 0.00 95 1019.3
20260506120703 8 63 1.6 12.9 0.00 0.00 0.00 95 1018.9
20260506115703 8 51 1.6 12.9 0.00 0.00 0.00 95 1018.9
20260506114700 8 61 6.4 16.1 0.00 0.00 0.00 95 1018.9
20260506113701 9 55 3.2 16.1 0.00 0.00 0.00 95 1019.3
20260506112701 9 59 3.2 12.9 0.00 0.00 0.00 95 1018.9
20260506111702 8 62 3.2 8.0 0.00 0.00 0.00 95 1018.9
20260506111140 8 53 0.0 3.2 0.00 0.00 0.00 94 1019.3
20260506105701 10 63 0.0 0.0 0.00 0.00 0.00 94 1018.9
20260506104706 10 64 0.0 0.0 0.00 0.00 0.00 95 1019.3
20260506103707 9 66 0.0 0.0 0.00 0.00 0.00 94 1019.3
20260506102704 9 62 0.0 0.0 0.00 0.00 0.00 94 1019.3
20260506101704 10 65 0.0 0.0 0.00 0.00 0.00 94 1019.3
20260506100701 10 63 0.0 0.0 0.00 0.00 0.00 94 1019.3
20260506095704 10 63 0.0 0.0 0.00 0.00 0.00 94 1018.9
20260506094701 10 63 0.0 0.0 0.00 0.00 0.00 94 1019.3
20260506093701 10 64 0.0 8.0 0.00 0.00 0.00 94 1018.9
20260506092704 11 54 0.0 3.2 0.00 0.00 0.00 94 1018.9
20260506091707 11 57 0.0 12.9 0.00 0.00 0.00 94 1018.9
20260506090704 11 66 0.0 12.9 0.00 0.00 0.00 93 1019.3
20260506085704 11 58 0.0 0.0 0.00 0.00 0.00 93 1019.3
20260506084706 11 54 0.0 0.0 0.00 0.00 0.00 93 1019.3
20260506083156 11 52 0.0 0.0 0.00 0.00 0.00 93 1019.3
20260506081705 11 52 0.0 0.0 0.00 0.00 0.00 92 1019.6
20260506080700 11 52 0.0 0.0 0.00 0.00 0.00 92 1019.3
20260506072705 12 61 0.0 0.0 0.00 0.00 0.00 91 1019.3
20260506071700 12 58 0.0 8.0 0.00 0.00 0.00 91 1019.3
20260506070707 12 187 0.0 8.0 0.00 0.00 0.00 91 1019.3
20260506061702 12 248 9.7 20.9 0.00 0.00 0.00 90 1018.9
20260506060704 13 238 9.7 20.9 0.00 0.00 0.00 90 1019.3
20260506060146 13 243 14.5 20.9 0.00 0.00 0.00 90 1018.9
20260506050708 13 343 3.2 12.9 0.00 0.00 0.00 88 1018.9
20260506043702 13 294 8.0 24.1 0.00 0.00 0.00 88 1018.2
20260506042701 13 281 6.4 16.1 0.00 0.00 0.00 88 1018.2
20260506041702 13 287 9.7 16.1 0.00 0.00 0.00 88 1018.2
20260506040705 13 329 8.0 20.9 0.00 0.00 0.00 88 1018.2
20260506035705 13 260 9.7 27.4 0.00 0.00 0.00 88 1017.9
20260506035149 13 326 14.5 27.4 0.00 0.00 0.00 88 1017.9
20260506033710 13 268 12.9 27.4 0.00 0.00 0.00 88 1017.9
20260506032700 13 257 12.9 32.2 0.00 0.00 0.00 87 1017.9
20260506032149 13 277 16.1 40.2 0.00 0.00 0.00 86 1017.6
20260506030701 13 278 25.7 37.0 0.00 0.00 0.00 86 1017.6
20260506025705 13 241 17.7 32.2 0.00 0.00 0.00 85 1017.2
20260506024707 14 257 9.7 27.4 0.00 0.00 0.00 84 1017.2
20260506023707 14 265 19.3 40.2 0.00 0.00 0.00 84 1017.2
20260506022700 14 256 9.7 40.2 0.00 0.00 0.00 84 1016.9
20260506021707 15 263 25.7 45.1 0.00 0.00 0.00 83 1017.2
20260506020704 15 256 37.0 48.3 0.00 0.00 0.00 82 1016.9
20260506015706 15 286 19.3 45.1 0.00 0.00 0.00 80 1016.9
20260506014702 15 264 17.7 45.1 0.00 0.00 0.00 80 1017.2
20260506013701 15 266 22.5 40.2 0.00 0.00 0.00 81 1016.9
20260506013157 15 242 25.7 45.1 0.00 0.00 0.00 80 1016.9
20260506011701 15 277 19.3 45.1 0.00 0.00 0.00 79 1016.9
20260506011159 15 309 20.9 45.1 0.00 0.00 0.00 78 1017.2
20260506010157 15 258 35.4 40.2 0.00 0.00 0.00 76 1017.2
20260506005156 15 273 20.9 48.3 0.00 0.00 0.00 76 1016.9
20260506002701 15 249 25.7 40.2 0.00 0.00 0.00 76 1017.2
20260506001706 15 250 25.7 40.2 0.00 0.00 0.00 75 1016.9
20260506000701 15 277 32.2 53.1 0.00 0.00 0.00 77 1016.9
20260505235658 16 265 25.7 45.1 0.00 0.00 0.00 77 1017.2
20260505234805 16 252 24.1 0.0 0.00 0.00 0.00 77 1017.2
20260505233548 16 257 25.7 0.0 0.00 0.00 0.00 75 1013.9
20260505233317 16 255 37.0 48.3 0.00 0.00 0.00 75 1013.9
20260505233059 16 277 22.5 0.0 0.00 0.00 0.00 74 1013.6
20260505232340 16 256 22.5 0.0 0.00 0.00 0.00 74 1013.6
20260505231018 16 252 24.1 0.0 0.00 0.00 0.00 76 1013.6
20260505230657 16 223 25.7 0.0 0.00 0.00 0.00 75 1013.9
20260505230107 16 234 32.2 0.0 0.00 0.00 0.00 75 1013.9
20260505225305 16 263 20.9 0.0 0.00 0.00 0.00 76 1013.9
20260505224151 16 232 35.4 48.3 0.00 0.00 0.00 74 1013.9
20260505222148 16 300 30.6 0.0 0.00 0.00 0.00 73 1013.9
20260505221704 16 277 37.0 45.1 0.00 0.00 0.00 74 1014.3
20260505220554 16 277 24.1 48.3 0.00 0.00 0.00 74 1014.3
20260505215528 15 277 33.8 56.3 0.00 0.00 0.00 75 1014.6
20260505214418 15 265 30.6 56.3 0.00 0.00 0.00 76 1014.6
20260505212026 15 243 29.0 56.3 0.00 0.00 0.00 74 1014.3
20260505210920 16 254 25.7 53.1 0.00 0.00 0.00 74 1014.3
20260505205811 16 251 38.6 53.1 0.00 0.00 0.00 71 1014.3
20260505204731 15 257 29.0 56.3 0.00 0.00 0.00 72 1014.3
20260505203705 15 242 19.3 45.1 0.00 0.00 0.00 72 1014.3
20260505202542 15 236 24.1 53.1 0.00 0.00 0.00 71 1014.3
20260505200150 15 282 32.2 64.4 0.00 0.00 0.00 71 1014.3
20260505195015 15 238 20.9 40.2 0.00 0.00 0.00 73 1014.3
20260505193908 15 275 25.7 45.1 0.00 0.00 0.00 73 1014.3
20260505192744 15 278 24.1 48.3 0.00 0.00 0.00 71 1014.3
20260505191624 16 261 32.2 45.1 0.00 0.00 0.00 71 1014.6
20260505190516 16 317 19.3 48.3 0.00 0.00 0.00 71 1014.3
20260505185342 16 237 17.7 40.2 0.00 0.00 0.00 72 1014.3
20260505184149 15 249 24.1 37.0 0.00 0.00 0.00 70 1013.9
20260505183029 15 253 17.7 32.2 0.00 0.00 0.00 72 1014.3
20260505181823 15 302 25.7 32.2 0.00 0.00 0.00 72 1013.9
20260505180250 15 250 20.9 40.2 0.00 0.00 0.00 73 1013.6
20260505173405 15 270 24.1 37.0 0.00 0.00 0.00 73 1013.6
20260505172243 15 265 22.5 40.2 0.00 0.00 0.00 74 1013.6
20260505171146 15 257 12.9 27.4 0.00 0.00 0.00 74 1013.9
20260505164638 14 333 8.0 27.4 0.00 0.00 0.00 74 1013.2
20260505162130 14 238 17.7 20.9 0.00 0.00 0.00 74 1013.6
20260505161543 14 267 12.9 27.4 0.00 0.00 0.00 76 1013.6
20260505152430 13 2 3.2 12.9 0.00 0.00 0.00 80 1012.9
20260505151430 13 56 0.0 3.2 0.00 0.00 0.00 82 1012.9
20260505150909 12 53 0.0 8.0 0.00 0.00 0.00 85 1012.9
20260505140432 8 70 9.7 12.9 0.00 0.00 0.00 94 1012.6